Terminal Aerodrome Forecast
Issued by NWS

Home | Current Version | Previous Version | Text Only | Print | Product List | Glossary On
Versions: 1 2 3 4 5 6 7 8 9 10 11 12
000
FTUS45 KGGW 251100
TAFGDV
TAF
KGDV 251128Z 2512/2612 27005KT P6SM SCT150
     FM251600 13007KT P6SM SKC
     FM251900 14014KT P6SM SKC
     FM252300 11009KT P6SM SCT200
      AMD LTD TO CLD VIS AND WIND=

USA.gov is the U.S. government's official web portal to all federal, state and local government web resources and services.